Voltar ao catálogo

ELECTRON KICK STAGE R/B

AtivoVLEO
NORAD 69703·ROCKET BODY·🇳🇿 New Zealand

Lançado Jun 26, 2026 de Rocket Lab Launch Complex 1

Loading…

Próximas Passagens (próximas 24 horas)

TLE

AtualizadoSource: Space-Track

Época: Sep 14, 2026, 09:29 UTC

1 69703U 26146C   26257.39517677  .00003234  00000-0  23516-3 0  9993
2 69703  41.9886  33.5991 0007815  66.4354 293.7294 15.05332090 12009

Acompanhe ELECTRON KICK STAGE R/B em tempo real com AllMySat

Download on the App Store